Weather Roundup
Issued by NWS Springfield, MO

Home | Current Version | Previous Version | Text Only | Print | Product List | Glossary On
Versions: 1 2 3 4 5 6 7 8 9 10 11 12 13 14 15 16 17 18 19 20 21 22 23 24 25 26 27 28 29 30 31 32 33 34 35 36 37 38 39 40 41 42 43 44 45 46 47 48 49 50
000
NZUS99 KSGF 090607
HRRSGF

HOURLY WEATHER
NATIONAL WEATHER SERVICE SPRINGFIELD MO
1200 AM CST FRI DEC 09 2016

......SGF CWA......

CITY           SKY/WX    TMP DP  RH WIND       PRES   REMARKS
SPRINGFIELD    CLEAR     16  10  77 NW5       30.61R WCI   9
6HR MIN TEMP:  14; 6HR MAX TEMP:  24;

JOPLIN         CLEAR     15  12  88 W3        30.67S
6HR MIN TEMP:  14; 6HR MAX TEMP:  24;

WEST PLAINS    CLEAR     20  12  71 N6        30.59R WCI  12
6HR MIN TEMP:  20; 6HR MAX TEMP:  27;

ROLLA          CLEAR     17  11  77 W7        30.58R WCI   8
6HR MIN TEMP:  16; 6HR MAX TEMP:  22;

OSAGE BEACH    CLEAR     20  11  68 NW7       30.63F WCI  11
BRANSON        CLEAR     19  12  73 NW6       30.63R WCI  11

......SURROUNDING SGF CWA......

CITY           SKY/WX    TMP DP  RH WIND       PRES   REMARKS
CHANUTE        CLEAR     16  10  77 NW5       30.67S WCI   9
PARSONS        CLEAR     12  10  92 N3        30.69S
COFFEYVILLE    CLEAR     18  11  74 NW3       30.70S
EMPORIA        CLEAR     13   9  84 W5        30.65S WCI   5
GROVE OK       CLEAR     23  18  80 CALM      30.69S
ROGERS AR      CLEAR     19  13  77 N3        30.64R
SILOAM SPRINGS CLEAR     18  10  73 CALM      30.64R
HARRISON AR    CLEAR     19  13  77 NW5       30.61S WCI  12
NEAR YELLVILLE CLEAR     25  12  58 NW8       30.61R WCI  16

......KANSAS AND MISSOURI......

CITY           SKY/WX    TMP DP  RH WIND       PRES   REMARKS
KANSAS CTY INT CLEAR     15   7  70 NW6       30.64S WCI   6
DOWNTOWN KC    CLEAR     20  10  65 CALM      30.66S
COLUMBIA       CLEAR     18  11  74 NW8       30.61S WCI   8
SEDALIA        CLEAR     18  10  71 W6        30.64S WCI  10
ST JOSEPH      CLEAR     14   7  73 CALM      30.66S
ST LOUIS       CLEAR     21  11  65 W6        30.59S WCI  13
SPIRIT OF STL  CLEAR     21  13  71 W9        30.61R WCI  11
KIRKSVILLE     CLEAR     15   9  76 NW7       30.59S WCI   5
WICHITA        CLEAR     17   9  70 CALM      30.65S
TOPEKA         CLEAR     15   9  76 W5        30.67S WCI   8
OLATHE         CLEAR     16   9  74 W3        30.64S

......TENNESSEE......

CITY           SKY/WX    TMP DP  RH WIND       PRES   REMARKS
MEMPHIS        PTCLDY    29  16  58 N8        30.58R WCI  21
NASHVILLE      CLEAR     26  15  63 NW7       30.53S WCI  18

......ARKANSAS.......

CITY           SKY/WX    TMP DP  RH WIND       PRES   REMARKS
FAYETTEVILLE   CLEAR     19  12  74 VRB3      30.64R
FT SMITH       CLEAR     25  13  60 NW5       30.68R WCI  19
LITTLE ROCK    PTCLDY    28  14  55 N12       30.65R WCI  18

......OKLAHOMA.......

CITY           SKY/WX    TMP DP  RH WIND       PRES   REMARKS
TULSA          PTCLDY    19  11  70 N7        30.69F WCI  10
PONCA CITY     CLEAR     15   8  73 NE5       30.67F WCI   8
MCALESTER      CLOUDY    30  13  49 N8        30.68R WCI  22
OKLAHOMA CITY  CLOUDY    28   7  41 N5        30.65F WCI  23

......IOWA............

CITY           SKY/WX    TMP DP  RH WIND       PRES   REMARKS
DES MOINES     PTCLDY    16   8  71 NW13      30.59S WCI   2
QUAD CITIES    CLOUDY    23  11  60 W14G20    30.52R WCI  11

......ILLINOIS........

CITY           SKY/WX    TMP DP  RH WIND       PRES   REMARKS
QUINCY         CLEAR     18  12  77 W9        30.56F WCI   7
CHICAGO        PTCLDY    22  16  78 W12       30.41R WCI  10




USA.gov is the U.S. government's official web portal to all federal, state and local government web resources and services.